Location: Gradaro
(45.0833°N, 10.8833°E)
Time: 15:16:27
(UTC+00:00)

Meteor 1-27 Rocket - Pass Details

Date: 29 November 2020
Orbit: 830 x 909 km, 81.3° (Epoch: 24 January)

Event Time Altitude Azimuth Distance (km) Brightness Sun altitude
Rises 05:11:33 0° 350° (N) 3,469 6.6 -13.9°
Reaches altitude 10° 05:14:00 10° 353° (N) 2,539 6.0 -13.5°
Maximum altitude 05:19:47 73° 78° (ENE) 930 4.1 -12.6°
Drops below altitude 10° 05:25:38 10° 163° (SSE) 2,569 6.7 -11.6°
Sets 05:28:07 0° 166° (SSE) 3,512 7.4 -11.2°
